Theta_e
332 326 318 314 305 302 297 300 303 302 305 311 313 313 312 314 311 307 331 337 339 342 346 348 348 349 348 346 344 343 344 344 343 341 340 339 338 339 337 336 339 338 336 339 337 336 336 333 335
327 324 315 307 300 295 297 301 303 305 311 317 315 316 315 312 323 325 330 336 342 344 345 347 345 349 348 345 344 343 343 343 343 341 340 339 338 338 336 336 337 336 336 338 334 335 334 335 336
325 318 311 302 297 296 298 303 303 309 312 311 314 318 318 316 323 328 333 339 343 345 346 346 345 348 347 345 344 343 342 342 341 343 341 338 338 337 336 336 337 336 336 337 334 335 336 335 335
318 316 309 300 298 301 302 304 307 309 310 312 314 312 319 326 326 331 336 341 342 343 345 343 345 347 346 344 343 342 342 340 343 341 340 339 337 337 335 337 338 338 335 334 333 334 335 335 334
317 309 301 299 300 302 303 307 309 308 308 310 314 310 316 325 330 334 337 340 340 341 343 344 343 345 345 344 343 342 341 340 340 338 342 339 337 336 335 335 336 336 334 334 333 334 334 333 333
310 308 299 297 301 304 306 310 308 308 308 309 312 313 316 327 330 334 337 339 340 339 342 343 337 339 341 342 342 341 341 340 339 338 343 339 337 336 335 334 335 334 334 334 334 334 332 332 331
308 304 299 300 301 303 306 310 309 308 307 308 314 310 317 323 330 334 336 338 339 339 341 342 341 339 335 337 338 339 340 338 338 337 340 339 337 337 336 335 335 332 333 333 332 332 331 330 329
309 306 301 301 301 301 306 309 308 308 308 313 318 308 310 323 330 333 334 335 337 336 338 340 340 340 340 340 332 333 335 335 335 333 333 332 333 333 333 330 333 333 333 332 332 332 330 329 327
312 302 298 301 301 304 307 305 308 311 311 311 312 314 318 325 331 330 329 331 331 333 336 338 338 338 338 338 334 330 330 331 331 329 326 324 328 329 330 327 331 333 333 333 331 331 330 329 325
305 300 301 305 306 305 307 306 307 307 309 310 313 320 322 325 328 326 326 327 329 330 333 335 336 337 336 336 336 335 334 334 333 330 329 327 327 326 326 323 325 329 330 332 332 332 330 327 326
304 300 303 306 308 308 308 306 309 305 304 309 309 314 321 321 324 326 327 329 330 332 332 334 334 335 336 336 334 333 333 333 332 329 327 326 325 326 326 326 326 327 324 330 331 331 330 327 325
301 305 306 308 309 307 306 309 308 305 308 310 312 316 321 320 321 324 326 327 329 331 332 333 334 332 334 335 334 333 331 330 329 329 327 325 324 324 324 324 325 324 327 327 327 327 327 326 324
304 304 307 308 307 305 307 306 307 308 311 312 314 314 316 320 321 323 325 326 327 328 331 332 333 332 333 332 333 332 332 330 330 327 327 325 324 323 323 323 323 324 324 324 325 324 324 323 322
301 305 305 305 306 306 305 304 306 308 311 312 311 312 313 318 321 321 322 324 324 327 329 332 332 333 333 332 331 331 332 331 330 328 326 325 324 323 322 322 322 323 323 324 323 323 321 320 319
303 298 300 301 303 303 304 300 300 307 309 309 310 311 312 313 316 320 323 323 325 326 328 329 331 333 332 332 331 331 331 331 329 328 327 325 323 323 323 322 321 321 322 322 321 321 320 319 319
298 298 292 297 301 302 303 293 299 304 306 306 307 308 309 310 311 314 318 323 325 326 326 328 330 331 332 332 331 330 330 331 329 328 328 326 324 323 322 322 321 322 321 320 319 319 318 317 317
292 283 289 292 299 299 300 294 299 301 304 304 305 306 306 305 306 308 310 311 316 324 326 326 328 329 331 332 332 330 329 329 330 329 327 327 325 324 323 322 323 322 321 320 319 318 317 317 318
285 287 288 287 293 296 295 297 298 300 301 302 302 302 302 302 305 308 308 310 312 317 323 326 327 328 329 331 330 330 328 327 328 328 328 328 327 325 324 324 323 321 321 321 319 319 318 318 318
287 287 287 289 295 294 293 294 298 299 298 298 299 299 300 302 306 305 307 309 309 310 316 321 324 326 327 327 326 326 325 326 326 326 327 327 327 326 325 325 323 322 322 322 320 320 318 317 316
289 286 286 291 294 294 291 291 295 296 297 299 300 300 299 299 301 304 305 306 307 308 312 318 323 325 326 327 327 327 327 327 327 327 326 326 326 326 326 325 324 323 322 321 320 319 318 317 315
291 288 286 285 290 291 289 287 290 293 297 296 298 299 299 299 301 302 303 305 306 305 307 310 318 324 326 327 326 325 323 321 322 324 323 324 325 325 324 325 325 323 323 322 320 319 318 318 315
286 293 290 289 286 280 287 277 283 286 290 294 296 297 299 300 300 301 303 303 303 305 306 307 313 321 325 327 325 324 323 322 323 323 324 323 323 324 324 324 324 324 322 322 322 321 320 318 317
287 294 292 289 286 285 284 282 283 288 289 292 295 296 297 299 300 300 300 302 303 304 307 307 314 320 324 325 326 324 323 325 325 324 322 321 321 323 323 323 323 323 323 322 322 321 319 320 319
293 290 289 288 288 280 283 283 282 285 289 291 296 297 297 298 299 298 298 298 299 301 308 315 317 319 323 324 325 324 323 323 323 323 322 321 321 320 321 321 322 322 322 322 322 321 320 319 319
291 286 275 278 279 276 283 282 285 287 289 292 294 296 296 297 295 295 295 295 297 299 301 306 310 310 320 323 323 324 323 323 323 323 323 322 321 321 321 320 319 319 320 321 321 320 319 319 318
289 287 277 270 272 276 282 279 284 291 294 295 294 294 296 294 294 294 294 294 295 296 296 297 298 299 302 304 306 310 317 323 323 324 323 323 323 324 324 323 322 321 321 320 319 318 318 318 319
287 285 287 281 279 275 279 283 290 292 292 293 294 293 294 292 292 292 292 292 293 293 293 294 295 296 297 298 300 300 302 303 304 305 307 308 310 314 320 324 324 322 322 321 321 318 317 317 317
289 292 283 284 272 270 277 279 282 286 289 290 292 292 292 290 290 290 290 290 291 292 291 292 292 292 293 295 296 296 297 299 300 300 300 302 303 304 306 308 312 320 323 323 322 321 321 319 318
288 286 286 285 281 275 273 278 286 289 290 291 290 292 290 289 288 288 288 288 288 289 289 289 289 289 290 292 293 294 294 295 296 296 297 297 298 299 299 301 304 307 311 320 322 322 321 319 319
291 288 287 281 279 282 280 279 287 289 290 291 290 289 288 287 286 286 286 285 285 286 288 287 287 286 287 289 290 291 291 292 292 292 293 295 294 295 296 297 299 300 303 306 310 316 319 320 319
Wind_Speed
10 6 2 5 5 5 1 1 0 3 1 2 2 3 3 2 2 1 2 7 8 12 10 12 12 12 13 13 11 11 10 11 14 13 14 14 14 14 15 13 13 12 13 14 14 13 14 13 15
7 4 5 3 6 3 3 2 2 3 3 5 4 2 2 1 0 2 7 5 10 11 11 11 11 12 13 12 11 10 9 11 12 13 12 14 14 14 15 14 13 13 13 14 12 13 13 14 15
4 4 4 5 3 3 3 3 3 2 4 1 2 1 4 1 1 7 1 11 11 9 8 9 10 11 12 12 10 8 8 7 10 14 14 12 14 14 12 13 12 13 13 13 11 12 13 12 13
5 5 4 5 3 2 2 3 4 3 0 2 2 2 1 1 3 6 9 13 12 10 9 10 11 11 11 12 9 7 6 5 6 10 12 13 12 13 12 11 10 11 12 12 11 10 10 12 10
4 3 4 4 1 3 3 3 5 3 0 1 1 1 0 1 3 8 12 11 13 10 8 10 9 10 11 11 11 9 6 4 1 8 11 13 12 11 12 11 10 12 11 11 10 10 8 9 9
5 3 4 2 1 3 2 4 5 2 1 1 2 4 2 1 5 7 11 11 10 11 9 8 8 8 9 10 10 10 8 5 3 8 9 13 11 10 10 10 10 11 10 10 10 8 7 7 8
5 3 4 4 1 1 2 4 3 3 3 2 2 2 2 2 4 9 9 9 9 9 9 8 8 7 7 8 9 9 8 8 6 1 8 10 12 10 9 6 6 8 9 9 8 7 6 6 6
4 4 3 2 3 3 2 3 0 3 3 1 1 2 2 3 9 9 8 7 8 9 9 8 7 8 7 6 7 7 8 7 6 4 9 8 7 9 10 7 4 6 8 8 7 6 5 4 4
2 4 2 3 5 2 2 3 0 1 4 1 3 1 2 5 10 9 7 6 7 7 8 7 8 7 7 7 7 6 7 7 7 6 7 8 5 6 8 6 6 6 5 7 7 5 3 2 2
4 3 7 3 3 3 1 2 3 2 1 2 2 1 4 7 8 11 11 12 10 12 10 8 8 9 8 6 7 7 6 5 5 5 5 3 4 5 5 6 5 4 7 6 6 6 4 2 1
3 6 4 3 4 3 2 1 1 4 2 6 5 2 3 4 7 9 9 10 14 13 9 11 9 9 10 8 6 4 4 4 4 5 5 5 4 3 3 2 2 2 3 3 3 3 3 4 3
4 4 5 2 4 3 2 1 2 5 5 2 4 2 4 7 10 11 11 11 8 10 12 12 11 10 10 7 6 7 6 5 5 6 7 5 4 4 4 3 3 3 2 4 3 3 3 4 4
4 5 5 3 3 1 1 4 4 5 6 3 2 2 4 6 8 7 6 6 7 10 11 12 11 11 10 10 7 7 8 7 7 7 8 6 6 6 5 5 4 4 3 3 4 4 4 5 5
2 4 1 2 3 3 4 6 6 7 7 7 5 7 6 6 8 4 6 10 10 10 11 11 12 11 10 11 12 9 8 9 7 7 8 10 7 6 6 6 6 5 5 4 4 5 5 5 5
2 3 1 3 3 4 4 10 9 9 4 7 7 7 7 7 4 10 10 10 11 11 10 12 13 12 13 13 11 9 9 9 8 9 11 11 9 9 8 6 6 6 6 6 5 5 5 6 6
4 3 3 3 8 5 8 17 4 7 7 10 9 9 7 8 7 8 10 10 9 10 11 11 10 13 14 13 10 8 8 9 9 8 9 12 12 11 9 7 8 7 6 6 6 6 6 6 6
2 4 5 5 8 4 7 11 5 2 7 9 8 8 7 8 8 9 11 10 10 11 11 11 12 14 14 13 10 11 11 9 9 9 9 12 12 12 10 8 8 8 7 7 7 6 6 6 7
7 5 5 6 3 3 5 20 4 1 5 8 8 8 8 8 13 11 11 9 10 9 10 11 10 13 14 9 9 7 8 8 8 9 9 12 10 13 11 9 9 8 8 7 7 8 6 7 7
6 5 5 3 3 4 9 15 16 8 6 10 12 10 13 14 15 9 9 9 8 8 10 11 10 12 9 7 8 8 10 8 8 8 12 12 11 13 12 9 9 9 9 10 10 7 9 7 5
3 3 4 4 5 6 6 14 16 9 10 14 16 13 13 10 14 14 10 7 6 8 6 7 11 11 11 9 8 6 7 8 9 8 10 12 12 12 11 11 10 11 9 10 10 9 5 5 6
11 14 4 3 2 2 5 14 11 9 16 7 10 12 9 14 15 9 8 6 6 7 8 8 12 13 13 14 6 4 3 1 5 8 8 9 11 10 12 12 10 11 10 9 10 11 12 9 5
14 8 7 3 4 5 2 14 5 3 4 5 8 8 13 13 7 6 9 8 6 8 7 8 9 12 12 13 10 12 9 9 6 5 5 7 10 12 12 12 11 11 8 11 10 10 12 9 10
6 9 13 6 5 3 4 5 4 1 4 4 6 8 7 7 7 6 5 5 6 7 7 6 6 8 8 10 12 8 10 6 3 3 6 7 8 11 11 12 11 11 9 11 11 10 12 10 10
8 7 5 3 5 9 9 10 14 8 8 5 5 5 5 5 2 5 4 5 7 8 8 5 1 1 4 7 9 9 10 7 4 4 4 5 6 7 10 10 10 11 11 12 11 12 12 12 11
8 8 3 5 7 11 9 8 24 3 1 7 7 8 5 5 6 5 7 7 9 12 13 11 12 12 7 2 3 5 6 6 7 6 5 5 5 6 9 10 9 9 11 11 10 10 11 12 11
16 13 8 10 7 4 6 13 13 6 14 12 7 8 8 7 6 6 6 8 11 13 14 14 15 15 14 14 13 11 10 2 1 2 3 3 4 5 6 8 10 11 11 10 10 8 8 10 10
10 19 7 4 2 3 6 8 9 8 7 6 7 6 8 7 7 8 8 9 10 13 14 13 14 15 15 14 12 13 12 12 10 10 8 6 7 6 7 6 7 9 10 11 10 8 9 9 11
8 11 10 10 7 7 5 5 11 2 8 6 7 7 7 7 9 9 8 9 9 10 10 13 13 14 13 13 12 11 11 11 10 10 11 11 9 9 9 9 9 8 8 10 10 10 10 11 10
8 10 9 5 8 8 6 9 8 12 12 8 9 9 10 10 10 9 8 8 9 9 11 11 13 13 13 12 10 11 11 11 10 10 10 10 10 11 10 9 9 9 8 8 9 11 11 12 12
20 17 15 8 10 10 2 7 1 5 6 7 7 10 10 11 10 8 8 8 9 10 10 11 12 12 11 10 9 10 10 10 10 11 11 10 11 10 11 10 10 10 9 9 10 10 11 11 12
Wind_Direction
324 328 71 42 55 65 345 289 77 149 178 190 102 136 192 93 163 200 351 176 153 151 153 153 149 148 142 136 129 137 138 128 130 123 122 119 122 115 115 117 123 114 110 107 98 92 94 96 96
318 349 47 76 82 69 281 254 220 196 159 136 105 101 52 113 59 93 125 181 153 152 155 158 151 153 146 139 137 144 145 142 133 135 128 126 129 118 125 126 121 121 118 112 110 97 91 84 103
327 35 71 84 101 152 183 201 159 151 153 198 92 13 143 135 156 171 165 152 144 147 151 155 152 151 147 137 141 151 151 165 152 143 128 129 124 130 126 131 131 127 126 119 121 105 95 86 77
2 19 50 76 110 232 237 159 159 140 158 187 143 71 281 193 167 178 149 150 148 150 151 154 149 152 143 139 141 148 157 147 159 131 142 135 134 134 138 140 135 132 132 130 128 116 90 88 79
30 58 57 76 322 286 270 145 155 155 135 100 183 175 249 56 74 131 149 153 154 159 158 161 159 152 148 147 151 159 162 172 136 150 163 138 140 140 144 144 140 129 135 131 133 122 108 95 87
31 84 61 142 248 300 289 150 139 173 137 194 120 146 196 115 140 157 152 156 159 165 164 168 165 160 156 158 158 159 164 167 159 161 150 144 146 148 153 152 151 140 136 135 132 131 121 107 94
97 64 149 151 178 341 230 159 161 178 154 235 146 98 153 195 167 154 155 152 156 170 172 173 175 174 166 165 164 166 172 181 171 176 153 145 150 152 151 155 154 152 143 144 143 139 134 125 111
101 90 107 226 178 221 193 184 307 169 204 70 161 194 156 176 147 139 144 156 163 174 184 185 184 179 178 178 174 174 178 186 177 139 140 141 148 152 154 156 151 163 157 155 158 157 153 142 122
123 66 151 213 159 235 145 176 96 278 131 208 199 203 44 116 135 135 149 164 179 190 192 190 190 193 186 181 184 188 185 186 186 163 147 124 141 152 158 160 190 179 161 165 170 179 174 141 99
85 113 209 209 191 180 214 195 175 160 97 254 282 153 83 137 162 171 181 189 193 201 198 190 195 199 188 190 183 193 192 203 193 191 174 161 163 171 178 170 187 227 187 179 185 193 186 173 252
168 175 204 231 237 182 181 227 151 133 229 223 213 185 138 161 185 199 201 207 207 203 199 197 196 197 195 195 184 192 197 189 201 204 202 184 178 189 193 207 197 195 195 206 205 205 203 216 235
146 230 177 206 186 164 208 152 223 186 216 248 165 145 159 182 203 213 212 213 202 209 217 212 203 201 198 193 198 194 192 199 199 202 197 196 198 201 208 211 225 219 212 220 231 241 243 242 240
189 203 201 244 171 176 62 249 234 244 237 212 234 226 218 222 224 226 226 229 210 220 211 213 208 207 199 194 197 200 207 201 209 204 199 195 205 210 210 218 215 222 221 237 249 259 260 259 258
213 193 258 289 239 223 196 250 141 259 271 249 232 255 257 228 230 239 223 234 222 226 222 212 204 208 203 206 205 204 205 210 206 208 209 203 201 207 214 221 221 224 217 225 244 258 266 269 271
140 153 29 256 235 250 161 281 214 210 197 239 248 243 239 250 258 228 240 239 227 226 223 206 207 204 203 211 208 204 206 207 209 216 208 202 203 210 211 219 225 225 217 226 231 247 254 265 267
141 127 150 246 176 250 121 258 166 194 207 243 239 254 256 256 245 258 251 233 239 239 219 215 204 204 209 210 204 208 210 208 213 208 208 207 206 204 208 214 221 223 222 222 221 225 243 251 253
337 192 187 285 211 150 185 268 246 197 198 241 254 251 254 272 266 252 254 252 240 235 241 224 208 210 210 212 205 205 207 210 215 212 210 210 205 203 210 217 223 215 222 222 225 233 220 237 250
186 210 219 195 213 209 214 255 238 202 165 222 252 268 269 254 258 262 251 245 244 227 231 235 217 216 212 208 208 206 208 214 217 215 217 210 205 206 210 217 217 210 222 231 228 233 232 242 254
165 176 186 214 230 184 231 249 251 240 235 240 243 241 253 263 273 255 257 247 244 243 230 222 221 218 202 197 199 214 218 212 215 216 216 214 214 207 207 215 217 215 223 229 222 230 239 243 228
171 178 220 271 230 187 253 254 264 216 228 230 240 240 240 245 267 269 265 264 249 254 234 221 222 216 206 207 208 205 196 217 215 210 214 215 214 211 209 212 214 213 221 225 217 216 235 252 188
219 223 168 201 327 248 304 269 225 241 234 229 243 247 250 240 255 269 286 273 267 258 249 234 226 217 208 206 191 183 174 118 189 210 213 211 212 217 219 219 217 211 211 225 216 209 211 237 212
220 190 168 162 67 245 21 281 252 274 219 208 238 232 245 254 260 258 268 286 295 278 268 253 237 219 214 191 191 200 209 222 223 217 197 197 202 215 216 224 221 223 214 222 219 211 216 215 233
217 153 180 155 183 12 214 297 258 207 275 235 252 244 247 254 248 279 324 333 322 323 294 260 239 217 202 190 200 196 212 227 201 183 182 198 202 217 221 221 224 228 227 233 233 221 215 214 231
142 87 67 136 157 246 214 198 262 214 196 215 222 246 256 251 66 70 37 12 2 359 0 12 22 280 190 181 194 191 207 202 185 194 204 204 209 216 224 220 222 227 227 232 228 228 223 221 228
158 138 143 207 207 233 156 179 250 274 111 181 204 240 273 100 102 68 43 34 31 33 35 43 50 36 32 111 194 218 214 195 212 216 218 213 221 223 229 218 218 225 233 236 234 227 228 230 228
190 184 163 193 205 200 142 227 240 208 222 240 235 262 161 129 103 84 51 49 51 43 42 47 49 48 42 48 48 45 39 29 334 283 265 252 233 241 240 213 221 222 229 232 227 226 227 233 234
189 211 171 82 48 80 216 285 295 196 223 219 219 174 159 135 112 94 61 55 51 49 43 44 46 47 42 40 43 41 37 38 36 36 39 29 22 5 344 300 246 232 235 232 228 228 229 214 238
170 159 186 214 200 227 245 258 240 210 240 230 188 177 153 118 101 87 69 58 52 49 46 45 43 42 37 37 35 36 32 30 30 29 26 17 10 2 354 350 346 321 249 244 235 235 234 225 227
161 191 205 172 199 198 231 243 202 226 226 208 189 175 140 122 111 96 78 61 52 47 43 43 38 34 30 27 24 28 24 23 25 25 15 6 356 353 350 343 335 327 329 295 256 244 245 236 241
208 201 189 192 202 232 223 255 250 273 218 181 151 122 115 109 103 92 81 70 56 45 41 42 35 32 19 12 16 21 17 17 18 11 2 355 348 343 336 333 329 325 325 324 311 303 279 255 252